User: anonymous   Login
Location: *
(37.5724°S, 58.0067°E)
Time: 01:16:31
(UTC+00:00)
Language:

Cosmos 2195 Rocket - Orbit

View from above orbital plane
View from above orbital plane
View from above satellite
View from above satellite

Ground track
Ground track

The orbit data is extracted from the following two-line orbital elements,

1 22007U 92036B   20328.44798125 +.00000005 +00000-0 -99539-5 0  9992
2 22007 082.9322 085.3842 0031017 043.8585 316.5027 13.77971210356099
Epoch (UTC): 23 November 2020 10:45:05
Eccentricity: 0.0031017
inclination: 82.9322°
perigee height: 948 km
apogee height: 994 km
right ascension of ascending node: 85.3842°
argument of perigee: 43.8585°
revolutions per day: 13.77971210
mean anomaly at epoch: 316.5027°
orbit number at epoch: 35609

The dashed part of the orbit path shows where the satellite is in the earth's shadow,  

DLR